Location: T. Spence Memorial Observatory
(32.7356°N, 82.2098°W)
Time: 04:53:08
(UTC-04:00)

Daily predictions for brighter satellites

Satellite Brightness Start Highest point End
(mag) Time Altitude Azimuth Time Altitude Azimuth Time Altitude Azimuth
H-2A R/B 4.0 00:12:35 20° W 00:12:57 20° W 00:16:48 10° NW
Cosmos 1943 3.6 00:16:01 10° NNW 00:20:39 60° NW 00:20:39 60° NW
CZ-2C R/B 4.2 00:28:02 41° NE 00:28:02 41° NE 00:32:39 10° N
Lacrosse 5 3.1 00:26:36 10° NW 00:29:38 36° NW 00:29:38 36° NW
H-2A R/B 4.4 00:37:37 18° WNW 00:37:37 18° WNW 00:39:18 10° NW
CZ-2C R/B 3.5 00:52:10 10° N 00:55:49 45° N 00:55:49 45° N
Cosmos 2278 Rocket 4.2 01:03:24 19° ENE 01:03:24 19° ENE 01:05:24 10° NE
COSMOS 2406 4.2 01:14:46 10° N 01:19:02 43° NNE 01:19:02 43° NNE
CZ-4C R/B 3.1 01:22:54 42° NNW 01:22:54 42° NNW 01:27:08 10° NNE
ATLAS 3B R/B 4.4 01:41:11 21° E 01:41:11 21° E 01:45:15 10° ENE
Cosmos 1844 Rocket 4.0 01:57:52 32° NW 01:57:52 32° NW 02:02:03 10° N
Cosmos 1634 Rocket 4.4 01:51:13 10° N 01:56:07 57° NNW 01:56:07 57° NNW
Cosmos 1607 4.3 02:24:03 59° NE 02:24:03 59° NE 02:29:10 10° NNE
SeaSat 1 4.4 02:26:04 21° ENE 02:27:16 24° ENE 02:31:08 10° N
CZ-2D R/B 4.4 02:31:24 10° ENE 02:34:13 14° E 02:34:35 14° E
Cosmos 2278 Rocket 3.3 02:45:15 34° NW 02:45:15 34° NW 02:49:47 10° N
H-2A R/B 4.5 02:41:22 10° N 02:43:43 26° NNW 02:43:43 26° NNW
Nadezhda 4 Rocket 4.0 02:50:39 71° NW 02:50:39 71° NW 02:56:33 10° N
Cosmos 2369 Rocket 4.3 02:54:36 15° ESE 02:55:20 15° E 02:58:22 10° ENE
IRS-P3 4.5 02:52:20 10° NNE 02:57:02 59° ENE 02:57:02 59° ENE
Cosmos 1833 Rocket 3.4 02:52:36 10° N 02:58:05 49° ENE 02:58:54 45° E
NPP 4.0 02:54:30 10° NNE 02:59:20 59° ENE 02:59:20 59° ENE
Cosmos 2297 4.1 03:04:57 54° NW 03:04:57 54° NW 03:10:02 10° N
SL-16 R/B 4.0 03:01:34 17° ESE 03:05:28 32° ENE 03:10:52 10° N
GP-B 4.2 03:01:11 10° NNE 03:04:28 41° NE 03:04:28 41° NE
Cosmos 2298 Rocket 4.3 03:07:34 64° N 03:07:34 64° N 03:12:07 10° NNE
USA 267 3.8 03:09:12 10° ENE 03:15:20 42° SE 03:15:50 42° SE
Cosmos 1733 Rocket 4.4 03:19:01 33° NNW 03:19:01 33° NNW 03:21:41 10° N
Cosmos 2150 Rocket 4.2 03:19:04 66° NW 03:19:04 66° NW 03:24:07 10° NNE
BREEZE-M DEB (TANK) 4.0 03:18:10 55° WSW 03:19:46 77° NW 03:41:56 10° NE
Exosat Rocket 4.3 03:14:49 10° NNW 03:20:41 74° ENE 03:24:04 35° SSE
Cosmos 2082 Rocket 2.0 03:17:19 10° NNW 03:22:58 88° ENE 03:22:59 88° E
ADEOS Rocket 3.4 03:15:46 10° NNE 03:23:21 76° ESE 03:25:04 55° S
ATLAS 3B R/B 3.0 03:28:25 52° WSW 03:30:03 64° WNW 03:37:18 10° NNE
Sich 1 Rocket 3.9 03:38:43 65° NNW 03:38:43 65° NNW 03:42:43 10° N
Cosmos 2195 Rocket 4.5 03:38:14 60° WSW 03:38:50 63° W 03:45:03 10° N
Cosmos 1627 Rocket 4.5 03:42:21 57° WSW 03:42:55 59° W 03:48:58 10° N
Meteor 1-27 Rocket 4.4 03:38:10 10° NNW 03:43:19 41° W 03:43:19 41° W
ERS-1 4.4 03:40:13 10° NNE 03:45:27 82° ESE 03:46:01 70° S
ADEOS 3.8 03:42:03 10° NNE 03:47:15 64° ESE 03:48:14 53° SSE
AQUA 4.2 03:43:09 10° N 03:47:29 49° WNW 03:47:29 49° WNW
Okean 3 3.8 03:44:08 10° N 03:47:40 61° NNW 03:47:40 61° NNW
Cosmos 1417 Rocket 4.5 03:42:48 10° N 03:48:57 77° E 03:51:20 40° SSE
Cosmos 1937 Rocket 4.5 03:49:53 32° WNW 03:49:53 32° WNW 03:54:29 10° N
Timation 2 Rocket 3.8 03:47:05 10° NNW 03:53:13 87° WSW 03:56:12 34° SSE
Cosmos 1633 4.1 03:54:43 29° ESE 03:55:03 30° E 03:58:16 10° NNE
Cosmos 1908 Rocket 4.4 03:58:20 38° WNW 03:58:20 38° WNW 04:01:55 10° N
Resurs 1-4 Rocket 2.0 03:53:45 10° N 03:59:05 80° WNW 04:00:04 59° SSW
BREEZE-M DEB (TANK) 3.6 03:56:48 37° SW 04:00:42 86° SE 04:04:35 10° NE
COBE Rocket 4.2 03:56:39 10° N 04:01:17 48° WNW 04:01:30 48° W
BREEZE M DEB (TANK) 4.0 04:04:02 17° ENE 04:04:02 17° ENE 04:04:40 10° ENE
BREEZE-M DEB (TANK) 3.4 04:04:04 29° NNW 04:04:04 29° NNW 04:07:12 10° NE
SeaSat 1 3.4 04:05:50 32° WNW 04:05:50 32° WNW 04:09:07 10° NW
Okean 2 Rocket 2.9 04:05:26 71° S 04:05:54 87° E 04:10:20 10° N
MOS 1 Rocket 3.9 04:00:46 10° NNE 04:06:03 59° E 04:08:00 36° SSE
OAO 1 4.5 04:04:32 47° W 04:06:11 83° N 04:11:42 10° ENE
Cosmos 1125 Rocket 3.4 04:11:41 51° SSW 04:13:04 82° WNW 04:18:23 10° NNE
Cosmos 1378 Rocket 4.1 04:09:44 10° NNW 04:13:17 40° WNW 04:13:17 40° WNW
CZ-2D R/B 2.3 04:09:16 10° N 04:14:32 57° WNW 04:15:55 44° WSW
Delta 2 Rocket 3.6 04:15:57 45° W 04:17:19 65° SSW 04:21:53 10° ESE
SL-08 R/B 4.5 04:18:18 28° W 04:18:18 28° W 04:21:42 10° NW
ARIANE 5 R/B 2.7 04:14:57 10° N 04:19:49 54° WNW 04:20:57 44° WSW
Cosmos 1782 Rocket 4.1 04:20:21 40° W 04:20:30 40° W 04:24:44 10° N
Cosmos 1553 Rocket 4.0 04:14:11 10° N 04:20:32 71° W 04:23:53 30° S
CZ-2D R/B 3.7 04:19:07 10° NNE 04:23:32 75° ESE 04:25:07 39° S
UNKNOWN OBJECT B 2.5 04:25:52 10° N 04:29:34 75° WNW 04:30:08 60° SW
IRS-1D 4.2 04:25:11 10° N 04:29:51 37° WNW 04:31:04 32° WSW
OE (NEXTSAT) 4.3 04:30:08 65° S 04:30:23 68° SE 04:33:54 10° ENE
Meteor 1-18 Rocket 4.1 04:28:01 10° NNW 04:33:31 66° W 04:36:39 26° S
CZ-3A R/B 3.7 04:31:03 29° SW 04:34:11 39° S 05:06:17 10° ESE
Cosmos 1943 Rocket 2.3 04:33:05 26° S 04:36:17 71° ESE 04:41:54 10° NNE
Cosmos 2369 Rocket 2.4 04:36:24 33° SW 04:38:44 56° WNW 04:44:17 10° NNE
Okean O Rocket 3.5 04:37:35 10° NE 04:41:15 26° E 04:44:54 10° SSE
Cosmos 1833 Rocket 4.3 04:37:53 10° WNW 04:40:32 17° W 04:40:32 17° W
PSLV R/B 3.5 04:41:02 45° WNW 04:41:43 59° NNW 04:45:00 10° ENE
Cosmos 1346 4.4 04:40:29 10° NNW 04:41:59 25° NW 04:41:59 25° NW
Cosmos 1437 4.4 04:44:02 10° NW 04:45:48 21° WNW 04:45:48 21° WNW
Cosmos 1269 Rocket 4.1 04:41:43 10° NNW 04:47:02 82° ENE 04:52:19 10° SSE
COSMOS 2455 2.8 04:44:20 26° SSW 04:47:55 88° WNW 04:53:58 10° NNE
Cosmos 405 Rocket 2.6 04:44:22 10° NNW 04:48:17 69° W 04:50:19 27° S
SL-16 R/B 3.2 04:46:39 26° SW 04:48:56 34° W 04:54:29 10° NW
CZ-3B DEB 3.8 04:38:51 10° NW 04:51:52 72° SW 05:01:34 10° SSE
Cosmos 1812 4.1 04:50:42 10° NW 04:53:36 22° W 04:53:36 22° W
Cosmos 2151 Rocket 3.8 04:51:49 28° SSW 04:53:56 54° W 04:58:23 10° N
ADEOS II 2.8 04:49:41 10° NNE 04:54:49 52° E 04:59:55 10° S
Cosmos 1975 Rocket 4.1 04:51:32 10° NW 04:55:08 26° W 04:55:50 25° WSW
Cosmos 2263 4.4 04:52:13 25° SW 04:55:31 59° WNW 05:01:14 10° NNE
USA 267 3.9 04:52:07 10° NNE 04:58:16 46° NW 05:03:11 16° WSW
USA 161 0.9 04:59:06 38° SSE 04:59:50 82° ENE 05:02:15 10° N
Cosmos 1536 2.9 04:58:11 15° S 05:01:21 74° E 05:05:20 10° N
NOSS 3-2 (C) 3.9 04:57:46 22° WSW 05:01:26 48° NW 05:07:39 10° NNE
NOSS 3-2 (A) 4.3 04:58:42 19° WSW 05:02:21 36° NW 05:08:15 10° NNE
Cosmos 158 Rocket 4.0 05:05:14 10° NNW 05:10:09 53° WSW 05:14:56 10° S
Cosmos 2344 4.3 05:05:50 17° WSW 05:11:24 42° NW 05:19:13 10° NNE
ASTRO E2 2.6 05:12:02 19° WSW 05:14:45 69° S 05:18:44 10° E
MOS 1-B 4.5 05:11:35 10° N 05:17:17 62° WNW 05:22:39 12° SSW
Cosmos 1536 Rocket 3.8 05:13:34 10° NNW 05:17:55 53° W 05:22:15 10° S
CENTAUR R/B 2.6 05:14:12 12° SSW 05:19:35 73° ESE 05:26:06 10° NE
Cosmos 2315 Rocket 4.0 05:13:30 10° NNW 05:19:44 67° W 05:25:53 10° S
Cosmos 1025 Rocket 4.4 05:16:50 10° N 05:21:00 41° E 05:25:08 10° SSE
GPS 2-05 Rocket1 4.2 05:20:43 18° SW 05:21:03 19° SSW 05:23:31 10° SSE
BREEZE-M DEB (TANK) 2.2 05:19:55 10° NW 05:23:28 90° NE 05:26:10 10° SE
PSLV R/B 3.7 05:21:10 10° N 05:24:50 62° WNW 05:28:19 11° SSW
IRS-1C Rocket 4.3 05:22:50 10° NNE 05:28:07 73° ESE 05:33:21 10° S
Gbstr 26 Del rocket 4.2 05:27:41 11° W 05:30:44 26° NW 05:33:59 10° NNE
DNEPR-1 R/B 4.2 05:26:56 10° SSW 05:32:53 79° ESE 05:37:48 10° NNE
CCE 1 Rocket 4.2 05:30:32 12° WSW 05:33:34 29° SSW 05:37:10 10° SE
PSLV R/B 3.5 05:29:38 10° N 05:33:53 78° WNW 05:38:09 10° SSW
Okean 1-7 Rocket 4.0 05:30:36 10° N 05:35:02 66° E 05:39:25 10° SSE
Tiangong 2 3.6 05:37:22 10° S 05:39:17 15° SE 05:41:12 10° ESE
Okean 1 Rocket 3.6 05:38:30 10° SSW 05:42:44 41° W 05:46:58 10° N
CZ-4B R/B 3.3 05:37:14 10° N 05:42:49 80° WNW 05:48:26 10° SSW
Landsat 4 3.8 05:42:39 10° S 05:46:23 55° W 05:50:08 10° NNW
Meteor 2-4 Rocket 3.8 05:40:59 10° NNW 05:46:25 54° W 05:51:42 10° S
CZ-4B R/B 3.5 05:46:45 10° N 05:50:05 33° WNW 05:53:20 10° SW
Cosmos 2251 Rocket 3.5 05:46:23 10° NNW 05:51:41 88° WSW 05:56:55 10° SSE
Meteor 1-23 Rocket 4.4 05:51:02 10° NNW 05:56:45 61° W 06:02:23 10° S
H-2A R/B 2.4 05:59:10 10° W 06:13:45 84° S 06:17:02 10° E
